Flag for U.S.A. Weather past 2 weeks in Fargo, North Dakota, U.S.A.

Now
52 °F

Clear.


Feels Like: 49 °F
Forecast: 42 / 71 °F
Wind: 8 mph from North

Location: Hector International Airport

Current Time: Apr 18, 2015 at 1:08:16 AM

Latest Report: Apr 17, 2015 at 11:53 PM


Visibility: 10 mi

Pressure: 30.11 "Hg

Humidity: 25%

Dew point: 17 °F

Location of FargoLocation

Historic Weather in Fargo — Graph

°F

Fargo temperature yesterday

Maximum temperature yesterday: 76 °F (at 3:53 PM)
Minimum temperature yesterday: 31 °F (at 5:53 AM)
Average temperature yesterday: 56 °F

Past Weeks' High & Low Weather Summary

 TemperatureHumidityPressure
High80 °F (Apr 14, 4:53 PM)89% (Apr 7, 5:53 PM)30.35 "Hg (Apr 7, 5:53 PM)
Low16 °F (Apr 3, 6:53 AM)10% (Apr 13, 5:53 PM)29.47 "Hg (Apr 12, 6:53 AM)
Average47 °F43%30.02 "Hg
* Reported Apr 2 11:53 PM — Apr 17 11:53 PM, Fargo, Weather by CustomWeather, © 2015

Note: Actual official high and low records may vary slightly from our data, if they occured in-between our weather recording intervals... More about our weather records

Advertising

Fargo weather history for previous 24 hours

 ConditionsComfort  
Time TempWeatherWind HumidityBarometerVisibility
11:53 PM
Fri, Apr 17
52 °FClear.8 mph25%30.11 "Hg10 mi
10:53 PM55 °FClear.9 mph21%30.09 "Hg10 mi
9:53 PM58 °FClear.12 mph20%30.08 "Hg10 mi
8:53 PM63 °FSunny.16 mph21%30.06 "Hg10 mi
7:53 PM68 °FSunny.22 mph21%30.03 "Hg10 mi
6:53 PM74 °FSunny.13 mph14%30.01 "Hg10 mi
5:53 PM76 °FSunny.7 mph11%30.02 "Hg10 mi
4:53 PM76 °FSunny.15 mph10%30.02 "Hg10 mi
3:53 PM76 °FSunny.16 mph11%30.04 "Hg10 mi
2:53 PM74 °FSunny.15 mph11%30.06 "Hg10 mi
1:53 PM73 °FSunny.14 mph12%30.08 "Hg10 mi
12:53 PM71 °FSunny.N/A16%30.10 "Hg10 mi
11:53 AM68 °FSunny.13 mph17%30.13 "Hg10 mi
10:53 AM63 °FSunny.10 mph24%30.15 "Hg10 mi
9:53 AM56 °FSunny.9 mph28%30.16 "Hg10 mi
8:53 AM49 °FSunny.5 mph43%30.19 "Hg10 mi
7:53 AM41 °FSunny.6 mph53%30.19 "Hg10 mi
6:53 AM32 °FClear.No wind64%30.19 "Hg10 mi
5:53 AM31 °FClear.5 mph67%30.18 "Hg10 mi
4:53 AM32 °FClear.No wind64%30.17 "Hg10 mi
3:53 AM34 °FClear.No wind56%30.14 "Hg10 mi
2:53 AM38 °FClear.No wind53%30.15 "Hg10 mi
1:53 AM36 °FClear.No wind54%30.15 "Hg10 mi
Weather by CustomWeather, © 2015

See weather overviewHow to use our weather pages